Presure
162 165 143 126 148 157 160 144 157 148 154 137 148 158 162 158 155 155 168 167 149 140 135 166 168 172 167 167 168 133 130 129 136 128 133 132 134 122 141 146 139 136 143 145 145
171 172 178 204 190 161 129 142 154 162 170 153 128 142 152 146 142 154 155 156 160 170 176 171 173 172 168 148 168 180 134 148 145 135 133 139 123 142 140 143 133 147 130 145 126
187 189 187 188 182 188 191 185 186 124 135 157 166 175 132 144 168 166 163 149 154 159 157 158 158 163 146 148 175 183 242 141 140 144 145 137 135 150 142 135 121 138 132 148 154
187 175 184 187 184 189 188 184 188 188 184 158 135 144 155 162 150 139 148 166 168 170 163 169 164 169 165 174 182 160 235 224 146 145 143 143 152 147 136 148 147 147 121 145 144
143 145 153 145 154 151 158 177 180 183 182 175 186 184 162 169 157 162 168 167 148 164 171 153 165 163 170 176 267 164 152 196 178 145 154 157 146 134 147 144 148 150 142 131 124
124 136 137 140 148 144 146 152 151 175 175 200 192 177 181 133 167 174 168 165 164 165 158 156 168 159 169 269 160 157 162 184 193 151 149 147 147 147 150 158 143 123 153 131 123
136 136 127 132 135 134 146 145 146 153 156 179 195 211 194 181 181 185 141 185 187 181 151 158 164 162 169 238 193 211 191 183 179 160 154 155 155 160 160 153 158 124 154 130 131
131 135 132 127 127 158 136 134 161 144 153 170 165 165 185 242 209 178 180 175 175 173 174 179 165 168 169 197 231 212 208 183 186 178 159 156 129 159 158 163 144 156 146 126 125
138 142 142 145 142 133 129 133 149 135 142 148 157 192 164 172 191 202 198 131 190 189 191 185 159 169 165 175 229 195 192 185 179 179 166 158 150 134 135 169 166 166 138 126 124
134 132 123 133 156 141 147 148 135 138 139 137 143 151 211 199 175 233 222 212 136 198 202 205 199 191 167 170 201 208 203 195 187 181 160 160 166 152 163 165 167 139 136 149 131
136 133 132 130 134 129 152 156 131 179 133 138 136 142 154 149 179 202 191 219 211 204 134 133 179 161 169 170 173 197 194 185 189 186 179 168 165 162 166 130 172 128 137 186 130
132 124 130 128 126 134 136 142 156 147 143 205 138 145 141 146 159 206 220 196 196 197 201 143 129 175 137 167 172 173 196 193 188 186 185 178 168 170 169 174 175 186 195 140 169
134 137 129 131 126 126 132 134 154 157 154 152 165 147 138 142 149 151 160 199 194 206 194 235 217 142 123 122 147 174 168 192 186 183 183 169 174 175 179 176 171 127 141 155 154
137 145 140 129 131 128 127 131 143 149 151 151 150 160 153 141 139 145 152 216 183 202 220 241 228 214 195 183 138 136 142 144 155 138 135 136 151 131 185 178 134 127 121 137 152
134 136 137 141 141 133 127 127 134 175 157 160 153 145 151 191 135 141 154 156 204 189 200 220 235 219 203 194 189 160 151 148 141 139 136 128 128 153 126 155 127 133 145 143 151
138 135 137 142 142 137 141 128 133 156 164 166 169 150 149 147 169 144 148 148 178 206 196 211 236 223 210 201 191 183 178 168 166 163 160 153 150 159 157 159 153 152 146 198 164
140 144 140 140 143 144 139 148 133 159 152 184 177 154 146 150 167 214 144 148 197 158 205 196 221 226 211 201 190 190 191 186 177 168 168 166 161 158 159 153 160 177 210 147 124
143 140 147 143 142 151 145 148 142 184 196 168 179 162 200 153 143 210 149 142 150 235 210 200 194 201 214 213 206 198 194 190 188 188 189 187 190 181 170 163 178 178 171 159 170
157 151 147 141 152 179 155 154 174 187 215 214 164 165 159 152 195 206 209 145 177 158 227 222 206 202 197 200 216 211 207 209 205 203 204 202 198 190 180 199 183 144 189 192 195
306 160 136 240 149 209 246 103 234 223 219 226 218 163 163 138 205 199 202 180 180 157 213 241 227 208 200 200 196 188 224 224 220 219 225 219 214 211 195 159 165 180 186 157 184
335 346 352 307 213 232 220 250 240 213 230 196 167 176 147 156 122 211 145 140 170 201 143 229 241 224 209 196 199 194 196 190 192 214 233 239 233 235 222 175 164 209 148 202 122
319 320 335 316 314 269 250 254 166 243 227 232 155 153 224 237 208 218 141 145 200 216 203 238 220 242 226 212 192 197 197 204 206 192 194 202 207 267 251 232 169 141 240 184 214
273 243 320 334 210 296 193 252 199 159 237 219 151 228 159 234 235 204 142 216 174 142 198 210 229 230 240 241 230 207 207 209 249 221 208 204 198 208 246 259 167 193 170 121 375
308 322 324 331 389 290 218 217 178 221 194 159 169 218 217 233 218 220 143 129 148 153 211 176 224 221 228 226 226 226 228 234 217 227 206 249 234 217 270 164 146 160 142 173 147
307 317 328 382 376 346 281 157 261 139 230 207 202 216 211 222 206 204 159 210 143 149 160 190 221 222 212 211 233 246 240 231 205 203 200 282 287 248 291 160 149 175 205 174 100
164 205 299 353 387 353 293 270 160 275 148 237 230 218 244 213 171 204 196 153 150 160 214 206 205 222 138 215 211 138 142 208 191 239 246 245 251 236 261 288 160 143 155 164 123
287 292 302 327 362 353 288 268 267 261 274 274 278 213 233 239 150 242 194 222 187 142 221 221 220 113 211 214 204 218 205 216 193 243 230 236 226 232 252 169 162 163 171 150 176
Wind_Speed
23 26 18 10 20 25 27 21 29 25 30 18 23 30 34 34 31 27 37 39 27 20 19 38 38 39 34 36 34 20 23 26 27 18 21 25 22 14 28 24 16 17 20 23 22
29 30 31 35 38 29 13 18 25 29 35 27 13 18 24 23 17 23 24 26 32 34 39 34 35 33 29 22 31 37 25 28 29 22 20 25 14 27 26 19 13 19 14 21 18
30 31 30 31 32 34 36 36 35 3 12 26 30 36 12 21 33 31 29 21 23 26 26 27 26 28 24 24 30 35 34 26 22 26 27 19 21 26 21 11 9 14 14 21 25
26 22 26 28 26 30 31 31 34 36 36 27 10 19 27 30 18 11 18 31 30 32 29 32 29 30 25 28 31 17 36 35 22 22 20 22 28 16 15 22 19 20 10 16 17
10 11 13 13 15 15 15 23 26 28 29 29 33 35 24 31 25 26 29 31 19 27 31 22 27 22 27 28 21 22 21 32 29 22 26 25 20 13 19 15 19 22 16 12 14
10 9 9 9 11 11 12 13 14 21 22 37 34 28 33 6 26 33 29 30 28 28 26 22 28 21 25 16 23 22 25 29 29 21 19 17 18 21 22 24 17 13 14 13 13
11 10 12 10 9 8 9 10 11 13 13 23 32 30 36 29 31 33 16 35 36 33 24 22 25 22 24 19 20 26 29 27 29 26 22 23 27 24 25 17 20 13 16 14 16
13 10 11 11 10 16 9 8 18 9 11 17 15 16 27 31 38 28 29 29 31 32 33 33 23 23 23 21 24 24 26 23 27 27 25 22 14 23 22 22 16 20 17 14 16
10 11 11 12 12 11 10 9 14 8 9 10 11 23 17 20 23 22 35 10 37 38 39 35 21 24 20 22 25 23 23 24 26 26 26 22 19 16 18 24 23 25 18 17 16
13 13 10 10 19 11 15 15 10 9 10 9 10 11 27 30 19 28 31 33 12 36 38 36 33 27 24 24 21 23 22 25 26 27 22 24 25 21 22 24 25 21 19 22 18
15 15 14 14 12 13 19 23 11 23 11 11 10 12 14 12 20 28 26 30 31 34 8 10 24 23 25 24 25 24 24 26 23 28 28 25 22 21 24 18 28 25 20 26 20
19 16 15 15 13 13 14 15 23 15 13 26 12 13 11 11 13 27 26 28 30 35 32 14 14 26 15 25 25 21 24 24 28 29 26 27 26 27 26 25 25 23 19 22 25
20 21 17 17 15 14 15 15 23 25 23 19 20 14 12 11 12 13 17 29 29 34 31 36 36 21 15 13 18 25 20 24 31 28 28 24 27 28 29 23 21 22 23 22 27
26 26 25 18 20 17 15 17 19 23 23 24 20 17 16 12 12 13 16 30 25 31 32 35 35 35 33 34 19 21 22 19 22 19 18 19 23 24 27 21 23 24 30 31 31
26 27 26 27 27 22 19 17 18 32 29 28 23 18 18 27 13 14 15 17 30 26 29 28 35 35 34 37 32 28 26 23 26 22 22 22 25 25 27 20 28 29 32 33 31
31 28 27 29 29 25 26 21 21 31 33 28 28 23 19 13 22 14 14 16 22 29 27 27 32 34 38 38 34 36 32 32 31 29 26 24 24 27 24 25 22 22 30 20 22
31 34 30 29 29 29 28 31 24 33 23 34 32 25 19 19 19 27 14 16 22 18 28 28 30 35 35 35 35 36 35 37 37 33 31 28 24 29 26 30 34 14 12 19 37
35 30 35 31 30 34 32 36 29 37 42 29 32 25 35 22 14 29 15 16 18 27 30 30 28 29 33 36 37 38 39 40 40 39 40 33 34 32 30 33 27 22 15 21 8
45 39 35 30 36 40 39 45 38 42 47 46 29 29 25 22 30 31 27 18 23 20 27 31 32 32 33 32 37 39 40 43 41 42 43 41 37 34 29 29 25 26 26 18 22
49 45 30 57 33 46 54 17 54 51 51 50 44 26 22 17 35 31 29 23 23 23 28 30 32 34 32 35 34 33 40 39 41 45 44 41 42 39 30 29 29 25 23 19 17
27 24 31 53 50 52 54 63 57 47 52 35 28 32 19 21 19 35 25 22 24 28 20 27 30 31 37 32 35 37 38 37 34 38 39 42 44 43 35 28 24 19 15 27 17
25 27 26 40 47 57 61 64 34 56 46 44 21 20 39 40 40 36 30 26 31 29 28 25 28 26 34 36 38 40 40 41 39 34 35 35 31 44 39 31 4 25 11 23 6
24 29 25 27 34 51 37 61 44 26 48 45 21 46 22 40 37 31 31 34 29 23 32 29 26 24 28 28 32 41 42 42 29 40 41 35 25 18 27 32 3 14 23 12 35
19 22 23 26 26 54 45 38 33 49 40 28 32 41 37 36 34 31 33 17 28 24 34 23 24 27 25 26 28 36 39 37 42 40 35 34 31 23 29 27 20 59 26 13 84
10 10 15 21 30 42 50 36 45 24 45 45 40 41 37 36 33 30 34 35 25 21 28 29 27 29 32 34 31 30 35 35 38 37 30 31 20 26 30 37 32 38 57 49 17
31 23 17 20 35 46 49 45 32 46 30 54 55 44 21 45 36 34 34 34 27 27 39 34 33 26 19 34 31 21 21 36 27 37 33 40 32 23 23 31 41 43 59 79 32
20 28 18 23 32 40 48 47 42 42 44 46 44 33 32 26 31 25 36 35 33 20 40 37 25 15 31 34 34 35 36 42 32 30 44 42 30 30 32 48 50 52 67 44 57
Wind_Direction
221 231 222 195 229 234 236 230 235 236 240 240 241 242 241 240 242 245 246 247 250 256 261 254 254 254 252 253 255 235 238 241 240 241 249 257 269 269 284 285 286 295 309 316 318
226 229 231 228 233 233 212 233 236 238 240 241 243 246 246 245 242 244 244 246 250 254 257 255 255 257 256 254 254 259 240 246 246 246 248 253 260 270 275 284 283 298 308 314 321
229 231 232 233 233 234 234 236 236 221 243 246 245 244 245 247 253 254 252 247 252 253 252 255 257 260 252 254 261 263 227 240 243 247 249 246 255 265 270 252 290 279 311 310 323
228 221 230 233 232 236 238 239 240 242 245 245 252 253 252 255 248 241 248 257 256 256 256 259 256 261 260 265 264 242 221 223 246 249 246 254 260 260 269 287 299 297 322 304 315
191 194 204 205 209 213 219 235 239 243 245 243 244 245 246 250 253 255 256 258 249 258 260 254 264 263 267 266 196 254 258 233 243 249 253 254 259 238 269 274 282 286 303 299 325
197 186 193 208 214 219 227 229 237 244 246 246 247 246 248 243 249 250 253 257 259 259 261 259 264 260 263 204 256 256 262 241 233 255 256 258 265 263 274 277 272 284 300 299 323
188 213 200 200 202 220 234 247 251 251 251 251 248 245 247 251 251 253 260 253 256 258 259 259 259 260 263 226 238 224 241 243 240 253 261 265 262 266 271 273 283 299 304 301 316
196 209 216 217 217 254 227 243 254 265 261 250 245 247 252 245 245 252 252 254 255 253 254 255 258 257 259 252 219 224 228 245 242 243 257 259 270 277 276 282 285 304 305 295 308
218 234 235 252 243 238 241 241 261 263 271 272 260 247 250 253 251 239 248 260 255 257 257 256 255 256 259 260 221 240 243 244 242 245 250 254 263 276 287 296 302 311 288 302 324
228 222 225 227 256 249 260 257 249 253 255 264 273 268 247 251 255 238 238 241 251 251 252 253 254 253 255 255 250 238 236 242 239 246 261 263 268 279 290 297 302 290 292 298 314
230 225 227 228 241 239 263 263 246 253 256 254 264 269 265 277 255 250 251 234 239 245 252 246 255 256 252 253 255 243 238 250 250 249 252 265 275 281 287 280 293 288 296 298 299
228 222 226 227 233 249 256 262 263 264 253 245 255 264 268 275 268 247 235 248 248 252 254 252 252 249 258 257 257 261 249 248 254 252 255 265 271 276 281 285 293 300 294 297 325
235 237 233 237 237 243 255 263 261 264 268 269 257 255 263 266 270 270 266 246 251 248 257 234 240 250 237 237 257 258 263 252 253 260 261 270 275 276 280 285 287 292 295 302 293
237 237 239 237 243 247 256 263 263 263 261 264 267 263 266 251 267 267 271 234 256 251 246 233 235 241 248 251 259 261 260 263 263 252 256 259 264 266 275 282 284 291 284 287 295
236 240 241 242 244 248 252 260 264 255 253 251 260 259 265 250 261 267 271 273 248 259 256 247 232 237 243 248 250 259 258 263 258 256 256 258 263 277 269 283 278 279 292 294 312
236 240 243 241 244 245 252 255 257 258 256 251 247 257 263 251 262 259 261 271 260 246 257 250 234 237 237 244 251 254 257 262 261 262 263 263 266 275 282 292 279 276 288 278 305
240 240 241 243 246 246 248 250 252 255 250 244 246 250 260 266 248 244 257 265 250 265 248 253 238 235 243 248 251 254 258 259 260 262 265 265 270 271 273 264 268 268 273 276 304
240 237 243 241 244 244 247 248 246 238 236 253 248 251 242 258 249 244 253 263 265 242 246 250 254 249 243 245 249 251 251 253 255 258 260 263 263 259 263 260 263 278 276 290 355
236 239 243 239 244 241 243 247 243 242 236 242 249 243 245 250 243 245 245 258 254 263 245 244 247 248 251 253 249 251 254 254 258 260 262 265 260 259 254 265 254 299 272 241 212
241 237 232 233 240 236 228 230 233 233 235 235 239 247 243 244 244 248 248 252 253 258 250 243 244 249 252 251 256 262 256 258 255 256 258 258 260 257 250 266 267 284 299 344 266
239 239 233 228 232 230 233 230 230 231 234 232 256 253 233 252 251 241 250 250 255 249 264 249 246 245 250 260 254 257 259 263 264 264 264 261 256 257 245 260 280 283 316 343 257
236 234 229 223 217 222 225 228 241 229 233 235 245 238 240 239 239 240 249 250 254 255 257 250 250 245 248 247 255 256 260 256 258 264 259 257 263 254 252 234 343 293 289 350 292
229 230 221 217 232 208 233 225 231 243 231 233 247 237 235 236 237 239 252 248 253 268 249 249 245 249 250 240 245 257 260 262 266 261 264 273 270 265 253 248 294 221 88 106 217
232 228 220 212 196 209 217 219 228 227 226 243 240 239 242 240 241 240 254 259 256 262 252 264 246 248 249 253 254 258 259 260 266 261 270 258 264 243 240 150 238 122 140 242 209
229 236 232 215 185 194 208 237 218 232 221 229 233 235 236 239 240 246 251 252 261 265 257 258 248 246 254 257 249 251 259 261 269 270 270 261 260 250 261 201 251 208 182 208 282
231 225 226 215 189 187 201 198 235 210 243 224 225 226 225 235 235 237 239 256 268 268 247 248 256 256 283 264 268 291 290 282 268 283 270 276 264 247 274 260 229 275 216 205 267
189 187 192 187 200 186 195 199 195 210 212 210 214 232 213 244 258 228 242 240 252 262 253 253 246 280 253 263 275 270 278 272 271 265 270 276 279 275 268 227 228 210 207 268 248